Vorticity
nan nan nan nan nan nan nan nan nan nan nan nan nan nan nan nan nan nan nan nan nan nan nan nan nan nan nan nan nan nan nan nan nan nan nan nan nan nan nan nan nan nan nan nan nan nan nan
nan 6 6 6 6 7 7 7 8 8 8 8 9 9 7 10 11 8 7 7 7 8 9 10 12 8 5 5 8 6 6 6 16 19 9 5 5 5 9 9 8 6 13 15 1 4 nan
nan 6 6 5 6 7 7 8 7 7 8 9 10 7 8 7 6 6 6 6 7 7 7 8 9 6 6 7 4 6 11 5 20 21 8 0 6 9 5 9 9 7 6 13 9 6 nan
nan 6 6 6 6 7 7 7 7 7 9 8 8 7 9 7 6 6 6 6 9 11 9 9 8 8 5 8 8 7 7 9 19 18 11 2 7 7 8 8 8 8 7 9 13 6 nan
nan 6 6 6 6 6 6 8 7 8 8 8 9 8 9 8 9 7 5 9 10 13 14 10 7 7 7 9 12 9 5 8 16 15 9 10 9 5 9 9 4 8 9 7 13 4 nan
nan 6 6 6 6 6 6 7 8 9 8 8 8 9 8 9 9 9 13 15 12 9 12 9 5 5 4 9 11 10 7 11 13 11 5 13 6 4 10 16 11 6 6 7 11 11 nan
nan 6 6 6 6 6 6 6 8 9 8 8 9 9 9 9 8 12 18 13 10 9 10 8 9 9 6 9 10 7 7 10 8 11 14 11 10 8 3 5 11 10 13 9 7 18 nan
nan 5 6 6 6 6 6 6 7 7 9 10 9 9 10 10 8 17 15 11 9 7 5 9 12 8 11 10 9 5 9 11 10 8 10 12 9 8 8 7 12 8 9 7 8 15 nan
nan 5 6 6 6 6 7 7 7 8 9 9 9 11 12 11 15 16 11 7 7 9 9 9 10 10 7 8 11 9 11 9 9 15 8 7 10 10 6 5 8 10 10 9 8 5 nan
nan 6 6 6 6 6 6 7 7 8 9 9 10 13 15 15 15 10 9 8 7 8 8 7 10 10 8 9 9 8 9 6 16 20 3 3 12 9 6 6 6 8 10 9 8 9 nan
nan 6 6 6 6 6 6 7 7 8 9 9 10 17 21 16 9 8 11 10 7 7 5 8 11 9 8 10 9 7 9 7 11 10 10 11 12 8 5 7 6 9 14 9 6 9 nan
nan 6 7 6 6 6 7 6 7 8 9 9 14 20 18 11 9 9 9 7 7 9 6 10 11 11 12 9 10 9 12 12 7 6 11 12 6 7 8 11 11 8 6 8 11 9 nan
nan 6 6 7 6 6 6 7 6 8 8 11 20 26 14 6 8 10 7 7 11 11 8 7 11 12 9 9 9 11 11 12 9 9 2 4 10 8 9 9 7 9 6 7 8 10 nan
nan 6 6 7 7 7 6 6 7 8 10 15 24 20 10 7 9 8 7 9 9 8 11 10 7 6 4 10 9 12 12 6 9 8 7 13 8 4 9 12 10 8 8 9 11 8 nan
nan 5 6 7 7 7 7 7 7 9 12 20 22 10 9 11 10 7 9 13 11 8 8 8 7 5 8 9 9 8 9 10 9 6 9 7 9 7 10 10 11 11 8 9 6 8 nan
nan 5 6 6 6 6 7 7 8 10 12 24 20 9 9 12 8 8 11 7 8 8 8 8 10 10 10 9 8 6 8 10 9 9 11 11 8 8 10 6 9 10 9 7 9 13 nan
nan 5 5 6 7 6 7 7 8 9 17 25 15 10 7 9 8 10 11 8 8 11 9 6 8 12 13 11 8 10 8 7 8 8 11 10 8 12 11 10 6 2 9 9 11 8 nan
nan 5 5 6 7 7 7 7 8 9 21 23 12 7 9 10 12 8 8 11 9 10 8 8 9 9 11 11 10 12 10 8 12 9 7 7 8 10 5 9 13 10 10 10 8 7 nan
nan 5 5 6 7 7 7 7 8 11 25 20 10 9 9 10 7 7 10 11 9 10 9 9 9 9 10 10 10 10 9 11 13 11 10 8 5 10 7 8 16 14 7 6 6 14 nan
nan 5 5 6 7 7 6 7 8 13 26 22 9 8 9 12 10 8 9 11 11 10 9 10 10 10 10 8 11 12 7 9 11 11 10 11 12 12 7 7 12 15 10 4 4 3 nan
nan 5 5 6 6 6 7 8 8 15 26 18 10 13 10 6 8 10 9 10 12 9 10 9 11 9 10 10 9 9 10 8 9 10 11 11 8 8 9 12 10 10 15 11 3 4 nan
nan 5 5 5 5 6 7 7 8 19 26 16 10 8 11 11 8 9 9 9 10 9 12 12 9 9 14 12 10 7 8 9 7 8 8 10 13 9 8 10 8 9 13 17 11 7 nan
nan 5 5 5 6 6 7 6 7 19 25 12 8 11 11 8 13 12 8 8 7 12 11 8 9 11 11 8 8 14 13 13 14 9 7 11 11 8 8 8 10 14 20 11 10 13 nan
nan 6 5 4 5 6 6 7 8 15 21 13 9 11 10 11 11 9 9 10 7 11 9 5 12 11 6 11 13 10 9 15 11 7 10 9 8 10 10 7 12 14 14 17 12 8 nan
nan 6 5 5 5 6 6 8 8 11 16 15 11 10 10 11 8 6 9 12 10 13 13 10 8 8 9 13 12 8 7 11 12 11 9 8 8 10 12 7 6 13 13 14 11 13 nan
nan 6 5 5 5 6 6 6 9 8 14 15 11 11 11 10 7 10 10 11 11 10 10 10 9 11 14 11 12 11 8 8 9 8 11 13 9 10 8 9 10 7 9 13 7 8 nan
nan 7 5 5 5 6 5 5 7 9 14 14 9 10 10 9 8 10 11 9 9 12 12 8 7 14 15 12 10 10 12 11 13 10 8 7 11 10 7 7 10 12 12 10 7 9 nan
nan 7 6 5 5 5 4 6 9 10 13 13 10 9 9 8 10 9 6 7 9 12 11 10 14 11 11 11 11 11 11 10 11 12 12 9 8 9 10 7 12 12 12 11 5 8 nan
nan nan nan nan nan nan nan nan nan nan nan nan nan nan nan nan nan nan nan nan nan nan nan nan nan nan nan nan nan nan nan nan nan nan nan nan nan nan nan nan nan nan nan nan nan nan nan
CAPE
8 6 9 10 15 14 20 19 13 27 42 45 64 46 21 26 32 4 1 31 121 121 20 34 35 106 10 4 0 0 7 1 4 0 6 9 0 2 24 29 38 11 3 21 35 0 2
6 7 7 6 9 12 17 19 16 14 30 39 49 34 21 10 19 6 0 49 143 144 141 102 68 135 0 0 0 1 0 0 7 70 11 22 0 0 57 86 149 12 1 38 6 1 28
5 7 7 8 10 14 9 12 13 19 17 37 27 38 24 14 9 3 0 11 48 113 54 68 149 15 0 0 0 0 0 0 13 80 0 56 0 56 1 14 1 29 1 0 0 0 1
3 6 5 7 9 12 12 27 22 18 26 12 33 38 27 19 4 2 7 23 59 155 164 199 149 4 0 0 0 0 0 0 54 37 2 19 17 37 2 0 0 11 9 2 0 0 0
1 4 6 6 8 9 12 12 15 33 28 21 13 29 31 10 9 5 43 138 72 59 94 132 4 0 0 36 61 12 4 0 18 67 18 80 23 34 5 0 0 6 0 0 0 0 2
0 2 5 5 7 11 13 11 19 20 21 16 11 14 20 8 22 19 8 51 54 3 2 43 34 0 0 9 42 49 53 32 0 78 46 104 60 11 0 0 1 0 0 0 0 0 0
0 2 4 5 5 9 13 16 12 13 24 10 18 5 8 4 10 21 0 0 0 0 0 0 0 0 0 9 50 81 17 6 0 44 20 63 12 4 0 0 0 0 0 0 0 0 0
0 1 3 4 5 8 9 14 14 8 16 11 13 6 4 8 2 10 0 0 0 0 0 3 3 2 1 0 62 9 0 0 0 9 0 27 6 0 1 1 0 0 0 0 0 0 0
0 1 2 3 4 7 7 9 14 15 9 18 14 8 4 4 2 0 0 0 0 0 0 1 5 0 0 0 42 2 0 0 10 9 6 2 5 4 13 5 0 0 0 0 0 0 0
0 0 1 2 5 6 5 8 11 15 14 19 12 4 3 1 0 0 0 0 0 0 0 9 4 4 11 0 25 0 0 13 12 5 21 16 10 19 14 6 0 0 0 0 0 0 0
0 0 0 2 4 7 4 8 8 12 14 8 9 2 0 1 0 0 0 0 0 0 0 0 0 0 0 0 0 8 15 45 10 19 1 6 0 3 0 0 0 0 0 0 0 0 0
0 0 0 2 3 3 6 4 6 6 9 6 9 6 1 0 0 0 0 0 0 0 0 0 0 0 0 1 3 1 9 31 30 4 0 0 0 0 0 0 0 0 0 0 0 0 0
0 0 0 2 2 3 4 2 3 5 6 3 3 0 0 0 0 0 0 0 0 0 0 1 25 3 3 4 10 5 8 12 3 0 3 0 0 0 0 11 1 0 0 0 5 0 0
0 0 0 1 2 3 2 1 1 6 3 10 0 0 0 0 0 0 0 0 0 0 0 0 3 0 6 2 7 8 2 2 0 0 0 1 7 0 0 0 0 0 0 0 1 0 0
0 0 0 1 0 1 3 2 2 4 8 4 0 0 0 0 0 0 0 0 0 0 0 0 1 1 2 2 0 0 0 0 0 0 0 0 0 0 0 0 0 2 8 0 0 0 0
0 0 0 0 0 1 2 3 4 4 5 0 0 0 0 0 0 0 0 0 0 0 0 0 0 0 0 3 1 0 0 0 0 0 0 0 2 0 0 0 0 0 0 0 0 0 0
0 0 0 0 0 0 1 2 3 2 1 0 0 0 0 0 0 0 0 0 0 0 0 0 0 0 0 0 0 0 0 0 0 0 0 0 0 2 12 10 3 5 1 0 0 0 0
0 0 0 0 0 0 0 0 0 1 1 0 0 0 0 0 0 0 0 0 0 0 0 0 0 0 0 0 0 0 0 0 0 0 0 0 0 1 2 0 0 2 10 0 0 0 0
0 0 0 0 0 0 0 0 0 1 0 0 0 0 0 0 0 0 0 0 0 0 0 0 0 0 0 0 0 0 0 0 0 0 0 0 0 0 2 0 0 8 0 0 0 0 0
0 0 0 0 0 0 0 0 0 0 0 0 0 0 0 0 0 0 0 0 0 0 0 0 0 0 0 0 0 0 0 0 0 0 0 0 0 0 0 0 0 0 3 0 0 0 0
0 0 0 0 0 0 0 0 0 0 0 0 0 0 0 0 0 0 0 0 0 0 0 0 0 0 0 0 0 0 0 0 0 0 0 0 0 0 0 0 0 0 0 0 0 0 0
0 0 0 0 0 0 0 0 0 0 0 0 0 0 0 0 0 0 0 0 0 0 0 0 0 0 0 0 0 0 0 0 0 0 0 0 0 0 0 0 0 0 0 0 0 0 0
0 0 0 0 0 0 0 0 0 0 0 0 0 0 0 0 0 0 0 0 0 0 1 0 0 0 0 0 0 0 0 0 0 0 0 0 0 0 0 0 0 0 0 0 0 0 0
0 0 0 0 0 0 0 0 0 0 0 0 0 0 0 0 0 0 0 0 0 0 0 0 0 0 0 0 0 0 0 0 0 0 0 0 0 0 0 0 0 0 0 0 0 0 0
0 0 0 0 0 0 0 0 0 0 0 0 0 0 0 0 0 0 0 0 0 0 0 0 0 0 0 0 0 0 0 0 0 0 0 0 0 0 0 0 0 0 0 0 0 0 0
0 0 0 0 0 0 0 1 0 0 0 0 0 0 0 0 0 0 0 0 0 0 0 0 0 0 0 0 0 0 0 0 0 0 0 0 0 0 0 0 0 0 0 0 0 0 0
1 0 0 0 0 0 0 0 0 0 0 0 0 0 0 0 0 0 0 0 0 0 0 0 0 0 0 0 7 2 0 0 0 0 0 0 0 0 0 1 0 0 0 0 0 0 0
1 0 1 0 0 0 0 0 1 0 0 0 0 0 0 0 0 0 0 0 0 0 0 0 1 4 0 0 9 0 0 0 0 0 0 0 1 2 5 10 0 0 0 0 0 0 0
1 4 2 1 0 0 0 0 1 0 0 0 0 0 0 3 0 0 0 0 0 0 0 0 1 14 11 6 0 0 0 0 0 0 0 0 0 0 0 0 0 0 0 0 0 0 0